Location: Góry Miechowskie
(50.3599°N, 20.1803°E)
Time: 02:10:11
(UTC+00:00)

SR - Pass Details

Date: 17 September 2024
Orbit: 578 x 855 km, 66.7° (Epoch: 04 October)

Event Time Altitude Azimuth Distance (km) Brightness Sun altitude
Rises 20:13:32 0° 318° (NW) 2,930 ? -29.9°
Reaches altitude 10° 20:15:48 10° 312° (NW) 2,055 ? -30.1°
Enters shadow 20:18:59 36° 280° (W) 1,059 ? -30.4°
